Temperature
16 16 15 15 15 15 14 14 14 14 14 14 14 14 14 13 13 13 13 13 13 13 13 13 13 13 13 13 12 12 12 12 12 12 12 12 12 12 12 11 11 11 11
16 16 15 15 15 15 14 14 14 14 14 14 14 14 13 13 13 13 13 13 13 13 13 13 13 13 12 12 12 12 12 12 12 12 12 11 11 11 11 11 11 11 11
16 16 15 15 15 15 15 14 14 14 14 13 13 13 13 13 13 13 13 13 13 12 12 12 12 12 12 12 12 12 12 12 12 12 12 11 11 11 11 11 11 11 11
16 16 15 15 15 15 15 14 14 14 14 13 13 13 13 13 13 13 13 12 12 12 12 12 12 12 12 12 12 12 12 12 11 11 11 11 11 11 11 11 11 11 10
16 15 15 15 15 15 15 14 14 14 13 13 13 13 13 13 13 12 12 12 12 12 12 12 12 12 12 12 12 11 11 11 11 11 11 11 11 11 11 10 10 10 10
16 15 15 15 15 15 14 14 14 14 13 13 13 13 13 13 12 12 12 12 12 12 12 11 11 11 11 11 11 11 11 11 11 11 11 11 11 10 10 10 10 10 10
16 15 15 15 15 15 14 14 14 13 13 13 13 13 13 13 12 12 12 12 12 12 12 11 11 11 11 11 11 11 11 11 11 11 11 11 10 10 10 10 10 10 9
15 15 15 15 15 14 14 14 14 13 13 13 13 13 13 13 12 12 12 12 11 11 11 11 11 11 11 11 11 11 11 11 11 10 10 10 10 10 10 9 9 9 9
15 15 15 15 15 14 14 14 14 13 13 13 13 13 12 12 12 12 12 11 11 11 11 11 11 11 11 10 10 10 10 10 10 10 10 10 10 10 9 9 9 9 9
15 15 15 15 14 14 14 14 13 13 13 13 12 12 12 12 12 12 12 11 11 11 11 11 11 11 10 10 10 10 10 10 10 10 9 9 9 9 9 9 9 8 8
15 14 14 14 14 14 14 13 13 13 12 12 12 12 12 12 12 11 11 11 11 11 11 11 10 10 10 10 10 9 9 9 9 9 9 9 9 9 9 8 8 8 8
14 14 14 14 14 13 13 13 13 12 12 12 12 12 11 11 11 11 11 11 11 10 10 10 10 10 10 9 9 9 9 9 9 9 9 9 9 8 8 8 8 8 8
14 14 14 13 13 13 13 13 12 12 12 11 11 11 11 11 11 11 10 10 10 10 10 10 9 9 9 9 9 9 9 8 8 8 8 8 8 8 8 8 8 7 7
14 13 13 13 13 13 12 12 12 12 12 11 11 11 11 10 10 10 10 10 10 10 9 9 9 9 9 9 8 8 8 8 8 8 8 8 8 7 7 7 7 7 7
13 13 13 12 12 12 12 12 11 11 11 11 11 11 10 10 10 10 10 9 9 9 9 9 9 8 8 8 8 8 8 8 7 7 7 7 7 7 7 7 7 7 6
13 12 12 12 12 12 11 11 11 11 11 10 10 10 10 10 10 9 9 9 9 8 8 8 8 8 8 8 8 7 7 7 7 7 7 7 7 6 6 6 6 6 6
12 12 12 12 11 11 11 11 11 10 10 10 10 9 9 9 9 9 8 8 8 8 8 8 8 8 7 7 7 7 7 7 6 6 6 6 6 6 6 6 6 5 5
12 12 12 11 11 11 11 10 10 10 10 9 9 9 9 8 8 8 8 8 8 8 8 7 7 7 7 7 7 7 6 6 6 6 6 6 5 5 5 5 5 5 5
11 11 11 11 11 10 10 10 10 9 9 9 9 9 8 8 8 8 8 7 7 7 7 7 7 7 7 7 6 6 6 6 6 5 5 5 5 5 5 5 5 4 4
11 11 10 10 10 10 10 9 9 9 9 8 8 8 8 8 8 7 7 7 7 7 7 7 7 7 6 6 6 6 5 5 5 5 5 5 5 4 4 4 4 4 4
10 10 10 10 10 10 9 9 9 8 8 8 8 7 7 7 7 7 7 7 7 7 6 6 6 6 6 6 5 5 5 5 5 4 4 4 4 4 4 4 3 3 3
10 10 10 9 9 9 9 8 8 8 7 7 7 7 6 6 6 6 6 6 6 6 6 6 6 5 5 5 5 5 4 4 4 4 4 4 3 3 3 3 3 3 2
9 9 9 9 9 8 8 8 8 7 7 7 6 6 6 6 6 6 6 5 5 5 5 5 5 5 5 4 4 4 4 4 4 3 3 3 3 3 3 3 2 2 2
9 9 8 8 8 8 8 7 7 7 6 6 6 6 6 5 5 5 5 5 5 5 5 5 4 4 4 4 4 4 4 3 3 3 3 3 3 2 2 2 2 2 1
8 8 8 8 8 7 7 7 6 6 6 6 5 5 5 5 5 4 4 4 4 4 4 4 4 4 4 3 3 3 3 3 3 3 3 2 2 2 2 2 1 1 1
8 7 7 7 7 7 6 6 6 6 5 5 5 5 5 4 4 4 4 4 4 4 3 3 3 3 3 3 3 3 2 2 2 2 2 2 1 1 1 1 1 1 0
Wind_Speed
7 6 6 5 5 5 4 5 4 3 4 4 4 4 4 4 3 3 3 2 2 1 0 1 1 1 1 1 2 2 3 3 3 2 1 1 2 1 2 3 3 2 2
7 6 6 5 5 5 4 4 4 4 4 4 4 4 4 4 4 4 4 3 3 2 2 1 1 1 1 1 2 2 2 3 4 3 1 1 1 2 2 2 2 1 2
7 7 6 5 6 6 5 4 4 4 4 3 4 4 4 5 4 5 5 4 3 3 3 2 2 2 2 2 2 2 2 2 3 3 2 1 1 1 1 0 1 1 1
6 7 7 7 7 7 6 5 4 4 4 4 4 4 4 4 4 5 5 4 3 3 3 3 3 3 4 4 3 3 3 3 3 3 2 1 1 0 1 1 0 1 1
7 7 7 6 6 6 5 5 4 4 4 4 3 3 3 3 4 5 5 5 4 3 3 3 3 4 5 4 3 4 4 3 3 3 2 1 1 1 2 2 2 1 1
7 7 6 6 5 5 5 5 4 4 4 3 4 4 3 3 5 6 6 5 4 5 4 4 3 3 4 5 5 6 6 6 6 4 3 3 4 3 3 2 2 1 2
5 5 5 6 6 5 5 5 4 5 4 4 4 4 4 4 5 6 7 5 4 5 5 4 3 3 4 3 3 4 5 7 8 7 6 6 5 6 5 4 3 3 3
4 4 5 5 5 5 5 5 5 4 4 4 4 4 3 4 5 6 6 5 4 4 5 5 5 4 4 4 3 2 2 4 5 5 6 6 6 6 7 6 5 3 1
4 4 4 5 5 5 5 5 4 4 4 4 3 4 4 4 4 5 4 3 3 3 3 3 4 4 5 5 4 4 3 3 4 5 6 6 6 6 6 4 3 2 1
4 4 4 4 5 5 5 5 4 4 4 4 3 3 4 3 3 4 5 3 3 3 2 2 3 4 5 6 5 5 5 4 2 2 2 2 3 4 6 6 5 4 2
3 3 3 4 4 5 4 4 3 4 3 3 3 3 3 3 3 3 4 3 4 3 3 2 3 3 4 5 5 5 5 4 3 3 2 1 1 2 3 4 5 5 4
3 3 3 3 4 4 4 3 3 4 4 3 3 2 2 2 2 3 3 4 4 4 4 3 3 4 4 5 4 4 4 3 2 2 2 2 2 3 3 4 5 5 5
3 2 2 2 2 3 4 4 3 3 4 4 3 3 3 2 2 3 3 4 4 4 4 5 4 4 4 3 3 4 3 2 2 2 3 4 4 4 3 2 2 3 3
3 2 2 2 1 2 2 3 4 4 4 4 4 4 3 2 2 2 3 3 4 3 3 3 3 3 3 2 2 2 2 3 3 3 3 3 2 1 2 2 2 1 1
4 3 2 2 2 2 2 3 4 5 6 7 6 6 5 5 6 6 4 3 3 4 2 1 1 1 1 1 1 1 2 2 2 2 2 2 2 2 2 2 2 1 2
4 3 3 2 2 2 2 1 2 3 5 7 7 7 6 7 6 6 6 5 4 4 3 2 3 3 4 3 3 3 2 3 3 3 3 3 3 3 3 2 1 2 3
5 4 3 3 3 2 2 2 2 2 2 3 5 7 7 6 5 5 5 4 4 5 3 4 4 4 4 4 4 4 4 4 3 3 3 3 3 2 2 2 2 2 3
4 5 4 4 3 3 3 3 3 3 2 2 3 4 5 6 5 5 5 3 2 3 3 4 5 5 4 4 4 4 3 3 3 3 3 3 3 3 3 3 3 3 3
4 4 4 3 3 3 2 2 2 2 2 2 1 2 3 4 4 4 5 3 4 4 4 4 4 4 4 4 4 4 4 3 3 3 3 3 3 3 3 3 3 4 4
4 5 5 4 3 3 2 2 2 2 2 2 2 2 1 1 1 2 3 3 4 4 4 5 5 5 5 5 4 4 3 3 3 3 3 3 3 3 3 4 3 3 4
3 4 5 4 4 4 3 3 3 3 3 3 3 3 4 3 3 3 3 3 4 5 4 4 4 4 4 4 4 4 5 4 4 3 3 3 3 3 3 3 3 4 4
4 4 4 4 4 4 4 3 3 3 4 4 3 3 5 3 3 3 4 4 4 3 3 3 3 3 3 4 4 4 4 4 4 3 3 3 3 3 3 3 3 3 3
4 4 3 3 3 4 4 3 3 3 4 4 3 3 3 3 4 4 4 3 3 3 2 2 3 3 3 3 3 4 5 4 4 4 4 3 3 3 3 3 4 3 3
3 4 4 3 3 3 3 4 4 4 4 4 3 3 4 4 4 4 3 3 2 2 2 3 3 3 3 3 3 4 4 4 4 4 5 4 3 3 3 2 3 3 3
3 4 4 4 4 4 4 4 4 4 4 4 4 3 3 3 3 3 3 3 2 2 2 2 2 3 3 3 3 3 4 5 4 4 4 4 4 3 3 3 2 2 2
3 4 3 3 3 4 4 4 4 4 4 4 4 4 4 3 3 3 3 3 3 2 2 2 3 3 3 3 3 3 4 5 5 4 3 3 3 3 3 2 3 3 3
Wind_Direction
187 186 184 188 189 183 184 195 197 198 194 191 190 189 185 185 180 169 183 179 168 193 192 159 202 165 152 157 150 145 151 150 173 237 231 210 173 175 173 189 200 200 220
189 182 186 187 184 185 194 201 195 195 193 190 184 185 188 187 183 178 184 182 172 185 211 185 206 162 159 172 158 163 165 164 163 186 212 196 198 188 168 166 191 211 233
185 182 183 186 190 195 199 199 192 188 186 190 183 189 194 191 191 190 186 184 182 194 200 191 204 175 195 200 177 174 178 171 157 162 190 200 217 156 119 153 175 240 244
184 184 188 194 196 198 198 193 191 186 181 186 191 195 199 199 196 192 186 186 189 198 201 197 193 187 203 204 194 188 175 156 144 148 164 187 199 170 128 177 270 285 267
185 191 198 198 191 188 189 189 188 187 191 189 184 194 201 201 206 197 190 191 191 203 216 214 212 201 202 200 199 189 174 168 161 161 171 169 183 174 200 204 205 244 282
184 193 193 185 179 181 185 183 183 190 193 187 191 193 198 214 213 200 188 189 192 199 213 224 226 221 219 211 204 195 184 181 183 180 186 196 208 205 194 189 175 164 269
181 189 186 179 178 184 183 175 185 192 185 188 195 189 201 218 212 205 197 189 194 204 207 207 223 227 213 210 215 214 218 211 196 184 190 207 204 200 186 188 195 197 225
170 181 180 178 185 186 178 186 196 187 183 190 197 200 204 224 213 206 203 198 203 216 216 209 213 227 219 201 193 200 228 226 215 203 202 213 207 196 189 189 194 201 258
176 186 186 177 181 182 190 203 203 187 189 195 196 196 201 232 223 211 198 189 201 221 226 214 210 216 216 194 184 201 234 260 242 218 216 220 209 200 181 151 153 158 250
201 201 196 181 179 187 198 205 202 190 197 193 196 202 205 223 227 215 198 188 200 223 236 232 222 216 213 191 188 195 214 238 229 210 214 233 218 205 188 179 180 185 211
200 189 187 189 189 194 197 198 189 183 178 184 195 213 215 216 219 205 197 196 201 205 216 233 237 220 212 200 190 200 217 210 198 199 205 212 203 202 203 201 194 191 201
176 181 196 204 202 193 185 195 187 175 174 189 195 210 228 230 220 215 210 211 203 197 216 225 223 209 204 199 200 206 208 189 184 185 203 224 227 231 228 218 218 218 219
158 177 199 209 209 188 179 185 183 177 180 195 196 208 228 241 242 229 227 228 216 211 218 208 201 203 202 208 212 203 191 178 180 197 218 232 231 227 215 211 217 226 242
167 185 195 184 199 201 183 185 188 190 192 196 202 213 222 226 235 239 240 241 230 227 229 210 194 190 190 188 196 210 201 192 193 213 225 234 225 211 213 208 206 210 245
182 191 194 195 192 201 202 206 205 213 205 203 211 210 208 224 231 222 220 225 220 215 184 143 146 170 186 205 215 222 208 199 211 223 217 224 228 225 229 214 193 189 218
189 196 195 194 199 195 192 282 283 236 231 219 215 212 222 222 217 216 226 232 224 190 163 177 199 204 210 214 217 224 218 216 221 221 216 217 221 223 227 216 198 202 228
196 198 196 194 196 199 198 199 251 306 272 236 228 223 219 213 208 206 214 218 202 174 187 204 210 214 219 218 216 216 223 225 214 210 217 220 223 228 224 222 217 227 243
202 203 199 198 202 206 208 212 212 216 245 268 254 233 220 213 208 207 200 178 191 194 208 212 215 216 216 217 217 219 224 223 213 214 215 216 217 220 224 226 224 228 242
207 206 202 196 194 197 202 207 212 217 227 241 248 259 233 217 206 203 183 192 207 217 219 219 219 216 215 214 214 214 216 218 215 211 214 215 215 213 220 225 231 242 244
217 211 199 190 188 189 189 198 210 217 223 223 226 234 219 176 208 216 209 211 215 221 223 224 224 221 216 211 207 207 208 211 213 215 217 215 215 213 221 229 235 240 242
211 206 197 191 188 189 190 197 206 212 218 224 233 225 193 194 210 216 219 224 222 223 224 224 225 225 222 213 206 204 205 211 213 211 210 213 211 218 228 233 238 242 248
197 193 191 195 195 194 198 199 201 210 220 226 243 234 207 203 211 216 221 229 230 229 223 216 220 226 223 211 201 198 203 210 212 208 207 208 209 215 220 227 233 241 244
198 193 195 201 199 202 203 202 205 209 218 223 220 213 204 213 222 222 225 227 230 233 230 220 219 230 234 221 208 203 203 211 214 205 199 204 209 214 217 225 229 235 239
195 194 199 205 202 199 202 210 213 214 216 218 221 216 213 211 217 224 224 222 227 238 232 219 220 224 223 224 230 227 222 218 212 204 195 196 201 209 215 225 233 236 240
198 199 200 203 202 202 206 212 214 216 219 220 220 220 216 211 212 215 215 218 221 225 226 212 210 208 209 219 225 224 217 207 206 200 187 185 192 200 206 214 229 241 243
204 203 205 202 202 202 205 212 217 217 219 220 217 215 213 210 208 207 202 201 205 215 217 213 206 202 211 222 219 210 206 200 195 195 188 178 186 199 200 214 227 233 239
Height
1519 1520 1521 1522 1523 1524 1524 1524 1524 1524 1524 1525 1525 1525 1525 1525 1525 1526 1526 1527 1527 1527 1527 1527 1527 1527 1527 1527 1527 1528 1529 1530 1530 1530 1531 1531 1531 1531 1531 1531 1531 1530 1530
1517 1518 1519 1520 1520 1521 1521 1521 1522 1522 1522 1522 1522 1522 1523 1523 1524 1524 1524 1525 1525 1525 1525 1525 1525 1525 1525 1525 1525 1525 1526 1527 1527 1527 1528 1528 1529 1529 1529 1529 1529 1528 1528
1514 1515 1516 1517 1517 1518 1518 1519 1519 1519 1519 1520 1520 1520 1521 1521 1522 1522 1522 1522 1523 1523 1523 1522 1522 1522 1522 1522 1522 1523 1523 1524 1525 1525 1525 1526 1526 1527 1526 1526 1526 1526 1526
1511 1512 1513 1513 1514 1515 1516 1516 1516 1517 1517 1517 1517 1518 1518 1519 1519 1520 1520 1520 1520 1520 1520 1520 1520 1520 1520 1520 1520 1520 1521 1521 1522 1522 1523 1523 1523 1524 1524 1524 1523 1524 1523
1508 1509 1509 1510 1511 1512 1513 1513 1513 1514 1514 1515 1515 1515 1516 1516 1516 1517 1517 1517 1517 1517 1518 1518 1518 1518 1517 1517 1517 1518 1518 1518 1519 1519 1520 1520 1520 1521 1521 1521 1521 1521 1521
1505 1505 1506 1507 1508 1509 1509 1510 1510 1511 1511 1512 1512 1512 1513 1513 1514 1514 1514 1514 1514 1514 1514 1514 1515 1515 1515 1515 1515 1515 1516 1516 1516 1516 1517 1517 1517 1518 1518 1518 1518 1518 1517
1502 1503 1504 1504 1505 1505 1506 1506 1507 1507 1508 1509 1509 1509 1509 1510 1510 1511 1511 1511 1511 1511 1511 1511 1511 1512 1512 1512 1512 1512 1512 1513 1513 1514 1513 1514 1514 1515 1515 1515 1515 1515 1515
1499 1500 1501 1501 1502 1502 1502 1503 1503 1504 1505 1505 1505 1506 1506 1506 1507 1507 1507 1508 1507 1507 1508 1508 1508 1508 1508 1509 1509 1509 1509 1509 1510 1510 1510 1511 1511 1512 1512 1512 1512 1512 1512
1496 1497 1497 1498 1498 1499 1499 1499 1500 1500 1501 1501 1501 1502 1502 1502 1503 1503 1504 1504 1503 1503 1504 1504 1504 1504 1505 1505 1506 1505 1506 1506 1506 1507 1507 1508 1508 1508 1509 1509 1508 1508 1508
1493 1494 1494 1494 1495 1495 1495 1496 1496 1497 1497 1497 1498 1498 1498 1498 1499 1499 1500 1499 1499 1500 1500 1500 1500 1501 1501 1501 1501 1501 1501 1502 1503 1503 1503 1504 1504 1504 1505 1505 1505 1505 1504
1491 1491 1491 1491 1491 1492 1492 1492 1493 1493 1493 1493 1494 1494 1494 1494 1495 1495 1495 1495 1495 1495 1495 1496 1496 1497 1497 1498 1498 1498 1498 1498 1499 1499 1499 1499 1500 1500 1500 1501 1501 1502 1502
1487 1487 1487 1487 1488 1488 1488 1488 1489 1489 1489 1489 1489 1490 1490 1490 1491 1491 1491 1491 1491 1491 1491 1491 1492 1492 1493 1493 1494 1494 1494 1495 1495 1495 1495 1495 1495 1495 1496 1497 1497 1498 1498
1484 1484 1484 1484 1484 1484 1484 1484 1484 1485 1485 1485 1485 1485 1485 1486 1486 1486 1486 1487 1487 1487 1487 1487 1488 1488 1489 1489 1489 1490 1490 1490 1490 1490 1490 1490 1491 1492 1492 1492 1493 1493 1493
1481 1481 1481 1480 1480 1480 1480 1480 1480 1480 1480 1481 1481 1481 1481 1481 1481 1482 1482 1482 1482 1483 1483 1483 1483 1484 1484 1484 1485 1485 1485 1485 1486 1486 1486 1487 1487 1488 1488 1488 1488 1488 1488
1477 1477 1477 1477 1477 1476 1476 1476 1476 1477 1477 1477 1476 1477 1477 1476 1476 1477 1477 1477 1477 1478 1478 1478 1479 1479 1479 1480 1480 1480 1481 1481 1481 1482 1482 1482 1482 1483 1483 1483 1483 1483 1483
1473 1473 1473 1473 1473 1473 1472 1472 1472 1473 1473 1473 1472 1473 1472 1473 1473 1472 1473 1473 1473 1473 1474 1473 1473 1474 1474 1475 1475 1475 1476 1476 1477 1477 1478 1478 1478 1478 1478 1478 1478 1478 1478
1469 1468 1468 1468 1468 1468 1468 1468 1468 1468 1468 1468 1468 1468 1468 1468 1468 1468 1468 1468 1468 1468 1468 1468 1468 1469 1469 1470 1470 1471 1471 1472 1472 1473 1473 1473 1473 1473 1473 1473 1473 1473 1473
1464 1464 1464 1464 1464 1464 1464 1464 1464 1463 1462 1462 1463 1463 1463 1463 1463 1463 1463 1463 1463 1463 1463 1463 1464 1464 1465 1465 1466 1466 1467 1467 1468 1468 1468 1469 1469 1469 1469 1469 1468 1468 1468
1459 1459 1459 1459 1460 1460 1460 1460 1460 1459 1458 1458 1458 1458 1458 1459 1459 1458 1458 1458 1458 1458 1458 1458 1459 1459 1460 1460 1461 1462 1462 1462 1463 1463 1463 1464 1464 1464 1464 1464 1464 1464 1464
1454 1454 1455 1455 1455 1455 1456 1455 1455 1455 1454 1454 1453 1453 1454 1454 1453 1453 1453 1453 1453 1453 1453 1454 1454 1455 1455 1455 1456 1456 1457 1458 1458 1458 1459 1459 1459 1459 1459 1459 1459 1459 1458
1449 1449 1450 1450 1450 1451 1451 1451 1451 1450 1450 1449 1449 1449 1449 1449 1449 1449 1449 1448 1448 1448 1449 1449 1449 1450 1450 1451 1451 1451 1452 1452 1453 1453 1454 1454 1455 1455 1455 1455 1454 1454 1454
1444 1444 1445 1445 1445 1446 1446 1446 1446 1446 1445 1445 1445 1445 1445 1445 1444 1444 1444 1444 1444 1444 1444 1444 1444 1445 1445 1446 1446 1446 1447 1447 1448 1449 1449 1449 1450 1450 1450 1449 1449 1449 1448
1439 1439 1440 1440 1440 1441 1441 1441 1441 1441 1441 1441 1440 1440 1440 1440 1439 1439 1439 1439 1439 1439 1439 1439 1440 1440 1441 1441 1442 1442 1442 1442 1443 1444 1444 1444 1444 1444 1444 1444 1444 1443 1443
1434 1434 1434 1434 1435 1435 1436 1436 1436 1436 1436 1436 1435 1435 1435 1435 1435 1435 1435 1435 1434 1434 1434 1435 1435 1435 1436 1436 1437 1437 1437 1438 1438 1439 1439 1439 1439 1439 1439 1439 1439 1438 1438
1429 1429 1429 1429 1430 1430 1430 1430 1430 1431 1431 1431 1430 1430 1430 1430 1430 1430 1430 1430 1430 1430 1430 1430 1431 1431 1431 1431 1432 1432 1432 1433 1434 1434 1434 1434 1434 1434 1434 1434 1434 1434 1434
1424 1424 1424 1424 1424 1425 1425 1425 1425 1425 1426 1426 1426 1425 1425 1426 1426 1426 1426 1425 1425 1425 1425 1425 1426 1426 1426 1427 1427 1427 1427 1428 1429 1429 1429 1429 1429 1429 1429 1429 1429 1429 1429